Tracking 19280 objects as of 13-Nov-2018
HD Live streaming from Space Station
objects crossing your sky now

FLOCK 3P 53

Track FLOCK 3P 53 now!
10-day predictions
FLOCK 3P 53 is classified as:


NORAD ID: 42013
Int'l Code: 2017-008BT
Perigee: 493.5 km
Apogee: 502.8 km
Inclination: 97.4 °
Period: 94.4 minutes
Semi major axis: 6869 km
RCS: Unknown
Launch date: February 15, 2017
Source: United States (US)
Launch site: SRIHARIKOTA (SRI)
aabbcc
Your satellite tracking list
Your tracking list is empty




NASA's NSSDC Master Catalog

Two Line Element Set (TLE):
1 42013U 17008BT  18316.66749407  .00000840  00000-0  36632-4 0  9994
2 42013  97.4342  20.6916 0006723 200.8882 159.2082 15.24919533 96533
Source of the keplerian elements: AFSPC